CAPE
0 0 1 4 11 31 50 86 210 147 194 300 2 2 1 1 1 2 4 4 8 5 6 7 6 3 4 2 4 6 8 5 4 1 0 2 2 3 6 8 9 6 14 10
6 27 36 26 16 31 58 75 92 255 106 265 155 0 1 2 6 4 5 2 1 2 1 0 0 1 0 1 2 1 3 2 1 0 0 0 0 0 0 1 2 0 0 21
32 73 97 85 91 75 66 108 132 200 249 336 221 202 19 5 7 2 2 0 0 0 0 0 0 0 0 0 0 0 0 0 0 0 0 0 0 0 0 0 0 1 11 16
85 72 56 115 106 139 373 240 393 208 216 236 192 75 5 2 1 2 1 0 0 0 0 0 0 0 0 0 0 0 0 0 0 0 0 0 0 0 0 0 0 0 0 0
85 80 43 49 107 173 173 181 93 115 160 189 64 1 2 1 5 2 0 0 0 0 0 0 0 0 0 0 0 0 0 0 0 0 0 0 0 0 0 0 0 0 0 0
46 77 55 86 170 86 85 135 94 70 110 179 6 20 8 0 0 0 0 0 0 0 0 0 0 0 0 0 0 2 0 0 0 0 0 0 0 0 0 0 0 0 0 0
97 84 69 85 152 18 58 158 16 20 105 10 0 0 0 0 0 0 0 0 0 0 0 1 0 0 0 1 1 1 1 0 0 0 0 0 0 0 0 0 0 0 0 0
100 156 91 151 66 21 155 5 0 1 16 0 0 0 0 0 0 0 0 0 0 0 0 0 0 0 0 0 0 0 0 0 0 2 1 0 0 1 0 0 0 3 3 5
147 151 150 46 41 22 0 0 0 0 0 0 0 0 0 0 0 0 0 0 0 0 0 0 0 0 0 0 0 0 0 0 1 1 3 7 7 6 6 4 5 5 8 9
119 75 100 97 6 0 0 0 0 0 0 0 0 0 0 0 0 0 0 0 0 0 0 0 0 0 0 0 0 0 0 1 1 1 4 5 11 11 6 5 4 5 5 11
167 113 91 17 4 2 0 0 0 0 0 0 0 0 0 0 0 0 0 0 0 0 0 0 0 0 0 0 0 0 0 0 0 0 2 4 3 1 9 3 1 5 5 12
500 127 65 44 73 7 0 0 0 0 0 0 0 0 0 0 0 0 0 0 0 0 0 0 0 0 0 0 0 0 0 0 0 0 0 0 2 5 0 0 0 0 0 1
125 51 63 12 3 0 0 0 0 0 0 0 0 0 0 0 0 0 0 0 0 0 0 0 1 0 0 0 0 0 0 0 0 0 0 1 2 3 7 1 0 0 0 0
0 0 0 0 0 0 0 0 0 0 0 0 0 0 0 0 0 0 0 0 0 0 0 0 0 0 0 1 0 0 1 0 2 4 6 8 9 11 10 11 11 6 0 0
0 0 0 0 0 0 0 0 0 0 0 0 0 0 0 0 0 0 0 0 0 0 0 0 0 0 0 0 0 0 2 4 5 7 7 3 3 6 6 5 6 7 7 0
0 0 0 0 0 0 0 0 0 0 0 0 0 0 0 0 0 0 0 0 0 0 0 0 0 0 0 0 0 2 4 0 0 3 5 5 4 4 3 2 3 4 6 9
0 0 0 0 0 0 0 0 0 0 0 0 0 0 0 0 0 0 0 0 0 0 0 0 0 0 0 0 2 3 7 6 0 2 2 3 2 3 2 2 5 5 6 0
0 0 0 0 0 0 0 0 0 0 0 0 0 0 0 0 0 0 0 0 0 0 0 0 1 0 0 1 1 2 5 5 5 4 4 4 6 2 2 4 6 6 10 3
0 0 0 0 0 0 0 0 0 0 0 0 0 0 0 0 0 0 0 0 0 0 0 0 0 0 0 0 0 0 1 4 4 2 3 0 4 8 11 16 14 13 12 11
0 0 0 0 0 0 0 0 0 0 0 0 0 0 0 0 0 0 1 1 0 0 7 0 0 0 0 0 0 0 0 7 7 7 11 11 15 19 17 5 12 14 18 20
1 1 0 0 0 0 0 0 0 0 0 0 0 0 0 0 1 1 2 1 2 2 0 0 0 0 0 0 0 0 0 7 13 13 16 17 18 17 17 14 15 18 20 21
4 4 2 1 0 2 1 2 2 0 0 0 0 0 0 1 0 0 0 0 0 0 0 0 0 0 0 0 0 0 2 6 10 14 16 17 16 16 20 19 19 18 19 24
4 2 2 2 2 3 2 3 1 1 0 0 0 0 0 0 0 0 0 0 0 0 0 0 0 0 0 0 0 3 9 11 12 14 16 16 21 19 20 19 20 22 21 20
3 3 3 3 1 0 0 2 0 0 0 1 1 0 0 2 10 0 0 0 0 0 0 2 0 0 0 3 4 12 14 17 14 17 15 9 18 17 16 21 19 21 18 17
3 3 2 1 0 1 2 2 0 0 0 0 0 0 0 0 9 6 0 1 0 0 2 0 1 0 3 5 11 14 17 15 16 22 18 16 16 18 23 21 25 23 23 23
2 2 3 1 0 1 1 0 0 1 0 3 5 7 5 3 0 0 3 3 2 0 2 9 8 7 6 7 11 14 14 12 14 9 8 12 15 14 16 17 21 24 31 36
0 0 0 0 0 0 0 0 1 3 0 5 8 7 5 4 7 5 4 9 7 7 4 11 9 4 6 10 12 13 12 13 10 14 18 17 19 20 26 35 42 23 10 6
CIN
0 0 0 0 0 0 0 0 0 0 0 -1 0 0 0 0 0 0 0 0 0 0 0 0 0 0 0 0 0 0 -1 0 0 0 0 0 0 0 0 0 0 0 0 0
0 0 0 0 0 0 0 0 0 0 0 0 -80 0 0 0 0 0 0 0 0 0 0 0 0 0 0 0 0 0 0 0 0 0 0 0 0 0 0 0 0 0 0 0
0 0 0 0 -4 -4 0 0 0 -1 0 0 0 -1 -1 0 0 0 0 0 0 0 0 0 0 0 0 0 0 0 0 0 0 0 0 0 0 0 0 0 0 0 -1 0
0 0 0 -3 0 0 -10 -7 -13 -17 -10 -6 0 -4 0 0 0 0 0 0 0 0 0 0 0 0 0 0 0 0 0 0 0 0 0 0 0 0 0 0 0 0 0 0
0 0 0 0 -1 -1 0 -8 -2 -4 -2 0 -23 0 0 0 0 0 0 0 0 0 0 0 0 0 0 0 0 0 0 0 0 0 0 0 0 0 0 0 0 0 0 0
0 0 0 0 -1 -36 -23 0 -2 0 0 0 -7 0 -2 0 0 0 0 0 0 0 0 0 0 0 0 0 0 0 0 0 0 0 0 0 0 0 0 0 0 0 0 0
0 0 0 0 -2 -44 -2 -5 -29 -16 -1 -54 -23 -2 0 0 0 0 0 0 0 0 0 0 0 0 0 0 0 0 0 0 0 0 0 0 0 0 0 0 0 0 0 0
0 0 0 0 -9 -4 -9 -42 0 -48 -54 0 0 0 0 0 0 0 0 0 0 0 0 0 0 0 0 0 0 0 0 0 0 0 0 0 0 0 0 0 0 0 0 0
0 0 -1 -4 -1 -16 0 -9 0 0 0 0 0 0 0 0 0 0 0 0 0 0 0 0 0 0 0 0 0 0 0 0 0 0 0 0 0 0 0 0 0 0 0 0
0 0 -1 -2 -9 0 0 0 0 0 0 0 0 0 0 0 0 0 0 0 0 0 0 0 0 0 0 0 0 0 0 0 0 0 0 0 0 0 0 0 0 0 0 0
0 0 0 -12 -22 -24 0 0 0 0 0 0 0 0 0 0 0 0 0 0 0 0 0 0 0 0 0 0 0 0 0 0 0 0 0 0 0 0 0 0 0 0 0 0
0 -4 0 0 -8 -34 0 0 0 0 0 0 0 0 0 0 0 0 0 0 0 0 0 0 0 0 0 0 0 0 0 0 0 0 0 0 0 0 0 0 0 0 0 0
0 -4 -9 -56 -56 -1 0 0 0 0 0 0 0 0 0 0 0 0 0 0 0 0 0 0 -5 0 0 0 0 0 0 0 0 0 0 0 0 0 0 0 0 0 0 0
0 0 0 0 0 0 0 0 0 0 0 0 0 0 0 0 0 0 0 0 0 0 0 0 0 0 0 0 0 0 0 0 0 0 0 0 0 0 0 0 0 -1 0 0
0 0 0 0 0 0 0 0 0 0 0 0 0 0 0 0 0 0 0 0 0 0 0 0 0 0 0 0 0 0 0 0 0 0 0 0 0 0 0 0 0 0 0 0
0 0 0 0 0 0 0 0 0 0 0 0 0 0 0 0 0 0 0 0 0 0 0 0 0 0 0 0 0 0 0 0 0 0 0 0 0 0 0 0 0 0 0 0
0 0 0 0 0 0 0 0 0 0 0 0 0 0 0 0 0 0 0 0 0 0 0 0 0 0 0 0 0 0 0 0 0 0 0 0 0 0 0 0 0 0 0 0
0 0 0 0 0 0 0 0 0 0 0 0 0 0 0 0 0 0 0 0 0 0 0 0 0 0 0 0 0 0 0 0 0 0 0 0 0 0 0 0 0 0 0 -1
0 0 0 0 0 0 0 0 0 0 0 0 0 0 0 0 0 0 0 0 0 0 0 0 0 0 0 0 0 0 0 0 0 0 0 0 0 0 0 0 0 0 0 0
0 0 0 0 0 0 0 0 0 0 0 0 0 0 0 0 0 0 0 0 0 0 -1 0 0 0 0 0 0 0 0 0 0 0 0 0 0 0 0 -1 0 0 0 0
0 0 0 0 0 0 0 0 0 0 0 0 0 0 0 0 0 0 0 0 0 0 0 0 0 0 0 0 0 0 0 0 0 0 0 0 0 0 0 0 0 0 0 0
0 0 0 0 0 0 0 0 0 0 0 0 0 0 0 0 0 0 0 0 0 0 0 0 0 0 0 0 0 0 0 0 0 0 0 0 0 0 0 0 0 0 0 0
0 0 0 0 0 0 0 0 0 0 0 0 0 0 0 0 0 0 0 0 0 0 0 0 0 0 0 0 0 0 0 0 0 0 0 0 0 0 0 0 0 0 0 0
0 0 0 0 0 0 0 0 0 0 0 0 0 0 0 0 0 0 0 0 0 0 0 0 0 0 0 0 0 0 0 0 0 0 0 0 0 0 0 0 0 0 0 0
0 0 0 0 0 0 0 0 0 0 0 0 0 0 0 0 0 0 0 0 0 0 0 0 0 0 0 0 0 0 0 0 0 0 0 0 0 0 0 0 0 0 0 0
0 0 0 0 0 0 0 0 0 0 0 0 0 0 0 0 0 0 0 0 0 0 0 0 0 0 0 0 0 0 0 0 0 0 0 0 0 0 0 0 0 0 0 0
0 0 0 0 0 0 0 0 0 0 0 0 0 0 0 0 0 0 0 0 0 0 0 0 0 0 0 0 0 0 0 0 0 0 0 0 0 0 0 0 0 0 0 0
Wind_Speed
22 23 23 24 26 24 23 23 20 21 21 21 13 12 10 9 13 14 12 11 9 5 5 5 3 0 4 3 2 2 2 4 6 6 5 7 7 8 7 8 10 11 11 12
24 22 23 26 26 26 24 24 26 24 29 21 17 16 16 18 15 15 15 13 11 9 8 6 6 6 2 3 2 1 4 5 6 7 7 7 7 8 8 8 8 8 10 8
20 20 21 17 13 20 23 22 22 22 22 14 10 14 14 17 19 17 16 14 12 11 8 6 6 4 3 3 3 4 5 6 7 7 8 9 9 9 9 9 9 10 9 10
15 16 19 13 11 15 13 15 14 20 22 20 9 11 12 15 17 16 16 15 13 10 9 7 6 5 4 4 5 5 6 6 7 8 9 8 9 9 9 9 10 10 11 13
13 13 17 20 16 13 11 15 12 17 19 11 11 10 8 13 15 15 15 13 12 11 10 8 6 5 5 5 6 6 6 7 8 8 8 8 9 9 9 8 9 9 10 12
14 16 15 13 6 1 3 14 7 12 5 11 17 10 8 14 16 16 14 13 13 12 10 8 4 6 7 6 6 5 6 7 7 8 8 8 8 8 8 7 8 7 9 11
16 14 13 14 4 3 7 5 8 9 4 10 12 7 20 19 17 15 14 15 14 12 10 9 4 8 7 5 5 5 5 7 8 8 7 8 7 8 8 7 8 9 9 9
12 18 16 3 4 8 4 3 5 4 6 10 11 15 19 19 17 16 16 15 13 11 11 10 10 7 6 5 4 4 4 6 6 6 6 6 8 8 8 8 8 8 8 8
6 2 3 5 4 4 4 3 0 4 9 14 15 16 18 18 17 15 15 12 11 11 11 10 10 8 7 6 5 4 5 4 4 4 5 5 6 7 6 7 6 7 7 7
8 7 9 9 5 3 2 2 5 8 12 14 16 18 17 16 15 14 12 9 10 12 11 10 10 9 8 9 9 6 4 3 3 3 3 5 4 5 5 6 6 6 7 7
13 15 11 9 9 6 5 5 8 11 13 14 16 17 16 15 15 14 13 12 11 9 10 9 9 9 8 7 7 6 4 3 2 3 2 2 4 5 5 6 7 7 7 8
7 8 7 7 6 9 10 11 13 14 15 14 15 16 14 14 13 14 14 13 12 12 12 11 10 9 8 7 5 5 5 3 2 1 0 1 1 4 5 4 3 5 8 8
9 3 5 4 4 8 10 11 13 14 14 15 14 13 15 13 13 13 14 14 14 12 12 8 5 6 5 6 4 2 1 1 2 2 2 2 3 3 3 6 6 4 1 3
1 2 3 4 2 7 9 11 12 12 12 13 14 14 13 12 13 13 13 13 13 13 11 9 8 7 5 4 5 5 4 2 3 2 2 3 3 3 4 4 5 2 8 3
5 4 5 2 6 9 11 13 14 13 13 12 12 12 13 13 13 12 12 12 12 13 12 12 11 10 10 9 8 7 6 5 4 4 4 3 4 4 4 5 5 5 4 7
4 4 4 7 9 11 13 14 14 13 13 13 13 13 12 12 12 12 12 12 13 12 12 9 9 10 9 9 8 7 6 4 4 5 4 6 5 5 5 5 5 5 5 4
5 5 6 8 10 12 13 12 12 13 13 13 13 13 12 12 12 12 12 11 6 6 8 9 8 7 7 8 8 6 6 7 8 6 6 5 5 5 5 5 5 5 5 5
1 3 4 6 9 11 11 11 11 13 11 12 11 8 5 8 10 9 8 8 7 6 8 8 8 8 7 7 8 7 6 6 6 7 5 5 6 4 5 5 6 5 5 3
2 2 2 4 9 11 11 11 10 10 8 8 9 8 6 6 6 8 8 8 8 10 10 9 11 11 11 10 9 8 7 7 6 6 6 4 4 7 5 5 5 6 6 6
2 2 1 5 5 7 6 6 9 9 7 9 8 8 8 7 7 9 10 11 10 6 7 11 11 11 10 11 11 8 7 7 7 7 5 6 5 6 5 5 6 6 5 6
3 4 4 5 6 7 7 6 8 8 8 8 9 9 9 9 8 9 9 8 10 8 8 10 10 9 9 9 9 8 7 6 7 7 7 6 6 6 6 6 5 5 5 5
2 3 3 4 5 6 5 5 6 7 8 8 6 7 8 9 8 9 7 6 4 13 8 8 8 11 7 10 7 7 7 7 6 6 6 6 5 5 5 5 5 5 6 6
3 4 4 4 5 6 6 5 4 6 7 7 8 8 8 6 7 7 7 10 6 8 7 7 8 10 11 6 7 7 7 6 6 6 6 5 5 5 5 6 6 6 6 6
5 5 5 4 4 5 5 5 5 5 4 5 5 6 6 5 4 5 3 5 7 9 7 6 8 11 11 7 7 7 6 6 6 5 5 5 4 4 5 6 6 6 6 7
4 4 4 3 4 3 3 5 4 4 4 5 5 6 7 5 4 2 5 5 6 7 7 8 9 11 8 8 8 7 6 5 5 5 5 5 5 5 6 5 6 7 7 8
3 3 3 3 4 2 2 3 3 3 3 3 4 3 3 4 4 3 4 5 6 8 7 6 7 8 8 8 8 7 6 6 5 5 6 5 5 5 6 6 7 8 8 8
3 1 2 2 2 2 2 2 1 1 1 2 3 3 3 4 4 4 6 5 5 6 6 6 7 8 8 8 7 6 6 6 6 5 5 6 5 5 6 6 5 6 7 7
Wind_Direction
266 271 271 271 272 273 272 271 274 279 270 276 191 197 163 147 170 168 176 166 162 175 162 155 146 241 161 313 128 206 206 47 354 28 21 21 12 11 40 19 25 18 12 11
271 267 257 257 257 260 262 271 272 277 276 279 166 183 177 177 177 178 179 170 165 171 185 161 158 179 145 123 46 13 40 17 27 19 20 25 24 19 30 29 42 39 17 8
265 268 270 273 270 271 270 271 270 274 279 290 191 205 180 175 187 188 175 167 168 168 163 160 149 155 122 102 106 61 46 40 32 20 28 25 25 24 26 27 32 35 32 13
269 287 270 269 233 242 253 266 274 281 287 292 226 216 192 182 183 180 169 165 160 151 153 154 143 140 145 122 97 75 58 49 45 32 35 28 29 30 26 30 31 30 30 27
252 255 262 269 265 243 236 278 278 268 259 249 132 139 146 193 172 165 160 154 152 147 145 145 142 147 130 110 92 73 60 53 50 32 37 32 33 31 29 32 33 35 33 29
248 261 268 274 81 7 326 275 4 329 294 145 148 189 165 154 147 147 146 145 140 136 139 131 122 107 88 67 73 55 45 42 47 45 37 37 31 26 32 34 34 28 34 31
237 249 261 272 152 229 251 335 344 328 141 166 189 333 130 142 140 146 139 138 141 146 140 146 111 110 109 116 98 68 27 44 33 30 33 28 27 27 16 33 32 27 22 27
234 248 265 337 109 238 13 21 4 307 142 159 109 118 130 141 143 144 146 143 153 142 140 142 137 129 132 116 101 81 69 60 50 30 18 22 27 16 19 14 27 23 16 13
244 254 12 300 314 48 336 353 115 158 152 132 141 140 144 149 150 148 143 151 154 146 144 142 146 146 136 138 129 110 88 67 55 52 29 19 27 16 19 12 14 11 10 10
277 273 283 245 205 251 263 275 173 158 144 156 147 151 148 149 149 147 146 157 149 150 149 150 150 152 157 145 145 143 131 124 108 55 34 22 16 21 25 15 5 11 3 5
256 265 275 269 249 231 195 164 156 147 158 156 151 154 156 157 155 149 160 158 154 152 158 156 161 155 150 154 156 152 154 157 158 126 37 87 68 18 13 54 20 357 4 345
258 272 275 296 356 185 183 179 165 159 160 154 159 159 160 159 158 157 162 158 165 166 167 168 169 156 153 156 180 166 166 181 53 334 5 20 317 162 114 101 69 42 24 11
265 352 309 337 273 171 185 176 166 164 159 158 160 160 163 157 157 157 161 168 172 167 163 164 142 122 142 146 147 101 102 118 144 263 302 322 316 320 312 185 206 193 126 26
313 203 215 204 195 179 174 161 156 156 158 161 157 161 157 156 148 166 168 173 165 160 155 160 155 155 154 145 138 151 165 140 225 224 259 269 277 287 284 298 310 263 201 239
253 225 301 185 171 168 160 155 163 159 158 158 158 162 160 160 169 171 165 165 163 167 172 178 180 174 177 181 183 189 198 209 209 231 241 291 278 271 272 279 288 295 295 202
191 230 178 168 166 167 168 171 167 164 164 163 166 165 167 163 169 165 167 171 175 178 177 176 180 175 183 192 199 201 220 271 258 254 239 239 254 264 274 280 290 298 302 333
195 203 185 178 179 180 181 179 173 169 168 171 168 166 168 167 164 170 174 175 157 147 153 160 181 162 183 201 208 220 218 194 216 249 249 247 263 268 278 282 289 300 304 87
288 335 225 195 187 184 186 182 172 171 174 172 161 156 141 163 173 170 164 157 146 160 180 179 182 162 186 202 225 238 235 234 223 232 253 251 259 291 283 290 293 297 308 166
288 285 199 199 181 181 176 178 171 170 143 113 124 145 134 131 134 148 152 168 183 193 198 185 177 181 191 203 215 233 247 242 250 246 249 258 253 252 277 281 296 307 305 304
64 72 152 156 155 179 147 104 101 102 111 121 129 142 158 166 160 167 178 196 206 213 162 182 184 197 205 201 209 244 238 240 246 253 250 265 284 282 287 287 276 286 304 308
68 67 72 79 73 70 93 115 126 138 147 148 165 175 179 173 176 177 189 211 199 174 172 175 191 204 204 208 197 229 249 238 246 252 259 256 270 270 277 292 294 291 296 300
60 94 102 103 108 106 106 116 121 135 154 163 173 159 173 176 184 201 229 250 195 171 192 195 197 210 216 184 211 217 225 234 247 257 262 262 264 271 278 288 290 288 289 289
77 101 111 112 130 133 129 138 136 152 166 175 178 179 190 196 195 206 222 209 225 171 196 206 201 197 204 194 212 219 228 236 245 256 266 275 276 277 278 280 286 293 290 285
102 96 100 98 113 135 146 158 163 161 169 174 187 188 191 199 207 220 217 95 185 176 214 209 198 197 191 203 215 221 230 231 239 248 256 256 259 266 266 267 271 276 280 279
61 83 100 123 151 155 131 148 165 164 177 211 187 185 215 228 219 224 191 185 181 201 195 214 200 193 197 211 215 218 222 230 237 238 237 238 246 250 260 266 270 275 278 280
22 50 77 30 17 35 106 149 226 181 202 203 209 190 188 224 209 207 188 210 191 203 211 186 192 196 207 215 218 209 218 226 223 216 240 250 251 259 267 274 279 280 279 282
88 320 114 119 82 53 37 33 289 289 135 305 299 143 196 211 221 218 211 198 217 201 216 205 184 198 210 210 208 210 211 227 226 227 222 231 247 260 270 283 313 348 352 6